GW3336 Weather Reports


time (UTC)temp
F
wind
direction
speed
knots
gust
knots
rain 1hr
in
rain 24hr
in
rain mn
in
humidity
%
barometer
mb
20260906195153 78 189 3.5 5.2 0.00 0.00 0.00 90 1017.4
20260906194649 78 174 3.5 3.5 0.00 0.00 0.00 91 1017.5
20260906194143 78 168 3.5 3.5 0.00 0.00 0.00 90 1017.2
20260906193638 78 172 1.7 2.6 0.00 0.00 0.00 90 1017.3
20260906193134 79 149 1.7 1.7 0.00 0.00 0.00 90 1017.3
20260906192629 79 177 3.5 5.2 0.00 0.00 0.00 88 1017.4
20260906192128 79 185 3.5 3.5 0.00 0.00 0.00 88 1017.0
20260906191624 79 171 2.6 2.6 0.00 0.00 0.00 88 1017.2
20260906191122 80 137 2.6 3.5 0.00 0.00 0.00 88 1017.2
20260906190617 80 173 3.5 3.5 0.00 0.00 0.00 86 1017.3
20260906190112 80 163 3.5 3.5 0.00 0.00 0.00 87 1017.6
20260906185610 80 160 4.3 5.2 0.00 0.00 0.00 87 1017.4
20260906185109 80 177 4.3 5.2 0.00 0.00 0.00 88 1017.4
20260906184604 80 163 3.5 3.5 0.00 0.00 0.00 87 1017.3
20260906184100 80 162 4.3 5.2 0.00 0.00 0.00 87 1017.4
20260906183556 79 164 3.5 5.2 0.00 0.00 0.00 89 1017.5
20260906183052 79 165 2.6 2.6 0.00 0.00 0.00 88 1017.6
20260906182546 79 166 1.7 2.6 0.00 0.00 0.00 89 1017.2
20260906182043 79 180 2.6 2.6 0.00 0.00 0.00 88 1017.4
20260906181537 78 170 3.5 3.5 0.00 0.00 0.00 89 1017.6
20260906181028 78 155 3.5 3.5 0.00 0.00 0.00 88 1017.6
20260906180522 78 160 3.5 3.5 0.00 0.00 0.00 88 1017.7
20260906180021 79 173 1.7 1.7 0.00 0.00 0.00 88 1017.5
20260906175520 79 168 1.7 2.6 0.00 0.00 0.00 89 1017.5
20260906175015 79 163 1.7 1.7 0.00 0.00 0.00 90 1017.7
20260906174514 78 140 1.7 1.7 0.00 0.00 0.00 89 1017.8
20260906174014 78 153 1.7 2.6 0.00 0.00 0.00 89 1017.7
20260906173509 78 100 1.7 1.7 0.00 0.00 0.00 89 1017.8
20260906173005 78 153 1.7 1.7 0.00 0.00 0.00 90 1017.8
20260906172459 78 170 1.7 2.6 0.00 0.00 0.00 89 1017.9
20260906171954 78 173 0.9 1.7 0.00 0.00 0.00 88 1017.9
20260906171449 78 119 2.6 3.5 0.00 0.00 0.00 88 1017.7
20260906170944 78 167 2.6 3.5 0.00 0.00 0.00 88 1018.1
20260906170441 78 120 3.5 5.2 0.00 0.00 0.00 89 1017.7
20260906165938 77 156 2.6 2.6 0.00 0.00 0.00 90 1017.8
20260906165437 77 70 1.7 1.7 0.00 0.00 0.00 89 1018.0
20260906164932 77 181 2.6 3.5 0.00 0.00 0.00 89 1018.2
20260906164430 77 158 1.7 1.7 0.00 0.00 0.00 90 1018.3
20260906163927 77 149 1.7 1.7 0.00 0.00 0.00 88 1018.2
20260906163423 77 137 0.9 1.7 0.00 0.00 0.00 89 1018.3
20260906162920 77 115 1.7 2.6 0.00 0.00 0.00 90 1018.4
20260906162414 76 168 3.5 5.2 0.00 0.00 0.00 90 1018.3
20260906161909 75 143 1.7 2.6 0.00 0.00 0.00 91 1018.1
20260906161408 75 172 2.6 3.5 0.00 0.00 0.00 92 1018.2
20260906160907 74 111 2.6 3.5 0.00 0.00 0.00 92 1018.2
20260906160401 74 178 2.6 2.6 0.00 0.00 0.00 92 1018.4
20260906155859 74 170 1.7 1.7 0.00 0.00 0.00 92 1018.5
20260906155353 74 168 2.6 2.6 0.00 0.00 0.00 93 1018.6
20260906154849 73 150 2.6 3.5 0.00 0.00 0.00 92 1018.6
20260906154343 74 168 3.5 5.2 0.00 0.00 0.00 92 1018.5
20260906153842 74 127 2.6 3.5 0.00 0.00 0.00 92 1018.5
20260906153336 73 144 2.6 2.6 0.00 0.00 0.00 93 1018.6
20260906152831 73 173 1.7 3.5 0.00 0.00 0.00 93 1018.6
20260906152326 73 155 1.7 2.6 0.00 0.00 0.00 93 1018.5
20260906151825 74 116 2.6 2.6 0.00 0.00 0.00 91 1018.6
20260906151321 74 159 1.7 1.7 0.00 0.00 0.00 91 1018.6
20260906150817 73 177 2.6 3.5 0.00 0.00 0.00 93 1019.0
20260906150312 72 152 1.7 1.7 0.00 0.00 0.00 94 1018.8
20260906145811 72 146 1.7 1.7 0.00 0.00 0.00 95 1018.9
20260906145310 72 178 1.7 1.7 0.00 0.00 0.00 95 1018.9
20260906144805 71 120 0.9 1.7 0.00 0.00 0.00 96 1018.6
20260906144300 71 105 1.7 1.7 0.00 0.00 0.00 96 1018.9
20260906143759 71 89 1.7 1.7 0.00 0.00 0.00 96 1018.8
20260906143257 71 93 0.0 0.0 0.00 0.00 0.00 97 1018.9
20260906142756 70 96 0.9 1.7 0.00 0.00 0.00 97 1018.9
20260906142251 70 89 1.7 1.7 0.00 0.00 0.00 97 1019.0
20260906141750 70 107 0.9 0.9 0.00 0.00 0.00 97 1018.8
20260906141239 70 95 0.9 0.9 0.00 0.00 0.00 98 1018.9
20260906140739 70 17 0.9 2.6 0.00 0.00 0.00 98 1018.8
20260906140234 70 39 0.0 0.0 0.00 0.00 0.00 98 1018.5
20260906135730 70 122 0.0 0.0 0.00 0.00 0.00 99 1019.0
20260906135227 69 80 0.0 0.0 0.00 0.00 0.00 99 1018.9
20260906134722 69 56 0.9 1.7 0.00 0.00 0.00 99 1019.1
20260906134217 69 76 0.0 0.0 0.00 0.00 0.00 99 1018.6
20260906133713 69 119 0.0 0.0 0.00 0.00 0.00 99 1018.8
20260906133208 69 102 0.9 1.7 0.00 0.00 0.00 99 1018.6
20260906132703 69 119 0.9 0.9 0.00 0.00 0.00 99 1019.0
20260906132159 69 116 1.7 2.6 0.00 0.00 0.00 99 1018.9
20260906131654 68 117 0.0 0.9 0.00 0.00 0.00 99 1018.9
20260906131149 68 106 0.0 0.0 0.00 0.00 0.00 99 1019.0
20260906130644 68 165 0.0 0.0 0.00 0.00 0.00 99 1018.9
20260906130139 68 106 0.0 0.0 0.00 0.00 0.00 99 1018.4
20260906125636 68 71 0.0 0.9 0.00 0.00 0.00 99 1018.5
20260906125130 68 168 0.0 1.7 0.00 0.00 0.00 99 1018.8
20260906124626 68 105 0.9 1.7 0.00 0.00 0.00 99 1018.3
20260906124121 68 100 0.9 1.7 0.00 0.00 0.00 99 1018.4
20260906123620 68 96 0.0 0.0 0.00 0.00 0.00 99 1018.4
20260906123115 68 103 1.7 1.7 0.00 0.00 0.00 99 1018.4
20260906122614 68 88 0.0 0.0 0.00 0.00 0.00 99 1018.5
20260906122110 68 98 0.0 0.0 0.00 0.00 0.00 99 1018.4
20260906121606 68 149 0.9 1.7 0.00 0.00 0.00 99 1018.4
20260906121103 68 66 0.0 0.0 0.00 0.00 0.00 99 1018.4
20260906120557 68 69 0.0 0.0 0.00 0.00 0.00 99 1018.2
20260906120055 68 84 0.0 0.9 0.00 0.00 0.00 99 1018.1
20260906115554 67 97 0.0 0.0 0.00 0.00 0.00 99 1018.1
20260906115049 67 165 0.0 0.0 0.00 0.00 0.00 99 1018.3
20260906114544 67 144 0.0 0.0 0.00 0.00 0.00 99 1018.2
20260906114039 67 80 0.0 0.0 0.00 0.00 0.00 99 1018.1
20260906113538 67 105 0.9 1.7 0.00 0.00 0.00 99 1018.2
20260906113033 67 70 0.0 0.0 0.00 0.00 0.00 99 1018.2
20260906112528 67 87 0.0 0.0 0.00 0.00 0.00 99 1017.9
20260906112025 68 97 0.0 0.0 0.00 0.00 0.00 99 1017.9
20260906111524 67 109 0.0 0.0 0.00 0.00 0.00 99 1018.2
20260906111020 67 107 0.0 0.0 0.00 0.00 0.00 99 1018.0
20260906110514 67 84 0.0 0.0 0.00 0.00 0.00 99 1018.3
20260906110008 67 81 0.0 0.0 0.00 0.00 0.00 99 1018.2
20260906105504 67 119 0.0 0.0 0.00 0.00 0.00 99 1018.1
20260906104959 67 133 0.0 0.0 0.00 0.00 0.00 99 1018.2
20260906104458 67 132 0.0 0.0 0.00 0.00 0.00 99 1018.2
20260906103957 67 145 0.0 0.0 0.00 0.00 0.00 99 1018.4
20260906103456 67 146 0.0 0.0 0.00 0.00 0.00 99 1018.4
20260906102951 67 161 0.0 0.0 0.00 0.00 0.00 99 1018.4
20260906102450 67 101 0.0 0.0 0.00 0.00 0.00 99 1018.2
20260906101945 67 100 0.0 0.0 0.00 0.00 0.00 99 1018.2
20260906101440 67 84 0.0 0.0 0.00 0.00 0.00 99 1018.3
20260906100935 67 90 0.0 0.0 0.00 0.00 0.00 99 1018.3
20260906100430 67 85 0.0 0.0 0.00 0.00 0.00 99 1018.4
20260906095924 67 101 0.0 0.0 0.00 0.00 0.00 99 1018.5
20260906095420 67 92 0.0 0.0 0.00 0.00 0.00 99 1018.3
20260906094914 67 95 0.0 0.0 0.00 0.00 0.00 99 1018.1
20260906094408 68 78 0.0 0.0 0.00 0.00 0.00 99 1018.1
20260906093859 68 110 1.7 1.7 0.00 0.00 0.00 99 1018.2
20260906093355 68 55 0.0 0.0 0.00 0.00 0.00 99 1018.1
20260906092855 68 67 0.0 0.0 0.00 0.00 0.00 99 1018.1
20260906092349 68 61 0.0 0.9 0.00 0.00 0.00 99 1018.1
20260906091844 68 80 0.0 0.0 0.00 0.00 0.00 99 1017.8
20260906091340 68 93 0.0 0.0 0.00 0.00 0.00 99 1017.9
20260906090837 68 72 0.0 0.0 0.00 0.00 0.00 99 1018.0
20260906090336 67 74 0.9 0.9 0.00 0.00 0.00 99 1017.8
20260906085830 67 176 0.0 0.9 0.00 0.00 0.00 99 1017.8
20260906085324 67 82 0.0 0.0 0.00 0.00 0.00 99 1017.7
20260906084819 67 61 0.0 0.0 0.00 0.00 0.00 98 1017.9
20260906084318 67 63 0.0 0.0 0.00 0.00 0.00 98 1017.6
20260906083813 68 75 0.0 0.0 0.00 0.00 0.00 98 1017.7
20260906083309 68 88 0.0 0.0 0.00 0.00 0.00 98 1017.5
20260906082803 68 65 0.0 0.0 0.00 0.00 0.00 98 1017.7
20260906082258 68 67 0.0 0.0 0.00 0.00 0.00 98 1017.5
20260906081754 68 100 0.0 0.0 0.00 0.00 0.00 98 1017.6
20260906081250 68 58 0.0 0.0 0.00 0.00 0.00 98 1017.4
20260906080745 68 74 0.0 0.0 0.00 0.00 0.00 98 1017.4
20260906080241 68 85 0.0 0.0 0.00 0.00 0.00 98 1017.2
20260906075735 68 83 0.0 0.0 0.00 0.00 0.00 98 1017.1
20260906075230 68 101 0.0 0.0 0.00 0.00 0.00 98 1017.2
20260906074725 68 176 0.0 0.9 0.00 0.00 0.00 97 1017.4
20260906074224 68 121 0.9 1.7 0.00 0.00 0.00 97 1017.1
20260906073719 68 149 0.9 1.7 0.00 0.00 0.00 97 1017.0
20260906073214 68 139 1.7 1.7 0.00 0.00 0.00 98 1017.2
20260906072710 68 145 0.0 0.0 0.00 0.00 0.00 97 1017.2
20260906072205 69 132 0.0 0.0 0.00 0.00 0.00 97 1017.5
20260906071701 69 128 0.0 0.0 0.00 0.00 0.00 97 1017.5
20260906071201 69 160 0.0 0.0 0.00 0.00 0.00 97 1017.7
20260906070657 69 90 0.0 0.0 0.00 0.00 0.00 97 1017.8
20260906070153 69 90 0.0 0.0 0.00 0.00 0.00 97 1017.5
20260906065652 69 89 0.0 0.0 0.00 0.00 0.00 97 1017.5
20260906065148 69 133 0.0 0.0 0.00 0.00 0.00 97 1017.7
20260906064643 69 143 0.0 0.0 0.00 0.00 0.00 97 1017.9
20260906064138 69 139 0.0 0.0 0.00 0.00 0.00 97 1018.0
20260906063633 69 146 0.0 0.0 0.00 0.00 0.00 97 1018.0
20260906063129 69 130 1.7 1.7 0.00 0.00 0.00 97 1018.2
20260906062625 69 129 0.0 0.0 0.00 0.00 0.00 97 1017.9
20260906062123 68 110 0.0 0.0 0.00 0.00 0.00 97 1018.2
20260906061620 68 141 0.0 0.0 0.00 0.00 0.00 97 1018.2
20260906061119 68 138 0.0 0.0 0.00 0.00 0.00 97 1018.2
20260906060616 68 121 0.0 0.0 0.00 0.00 0.00 97 1018.2
20260906060108 68 122 0.0 0.0 0.00 0.00 0.00 97 1018.1
20260906055603 68 119 0.0 0.0 0.00 0.00 0.00 97 1018.4
20260906055059 68 121 0.0 0.0 0.00 0.00 0.00 97 1018.3
20260906054558 68 107 0.0 0.0 0.00 0.00 0.00 97 1018.4
20260906054054 69 113 0.0 0.0 0.00 0.00 0.00 97 1018.5
20260906053550 69 114 0.0 0.0 0.00 0.00 0.00 97 1018.3
20260906053046 69 115 0.0 0.0 0.00 0.00 0.00 97 1018.4
20260906052541 69 129 0.0 0.0 0.00 0.00 0.00 97 1018.5
20260906052038 69 117 0.0 0.0 0.00 0.00 0.00 97 1018.4
20260906051533 69 145 0.9 0.9 0.00 0.00 0.00 97 1018.4
20260906051028 69 143 0.9 1.7 0.00 0.00 0.00 97 1018.6
20260906050524 69 101 0.0 0.0 0.00 0.00 0.00 97 1018.5
20260906050019 69 77 0.0 0.9 0.00 0.00 0.00 97 1018.6
20260906045517 69 39 0.0 0.0 0.00 0.00 0.00 97 1018.8
20260906045013 69 80 0.0 0.0 0.00 0.00 0.00 96 1018.6
20260906044508 69 73 0.0 0.0 0.00 0.00 0.00 96 1018.5
20260906044004 69 96 0.9 0.9 0.00 0.00 0.00 96 1018.5
20260906043459 69 82 0.0 0.0 0.00 0.00 0.00 96 1018.5
20260906042955 70 63 0.0 0.0 0.00 0.00 0.00 96 1018.8
20260906042454 70 90 0.0 0.0 0.00 0.00 0.00 95 1018.4
20260906041953 70 75 0.9 1.7 0.00 0.00 0.00 95 1018.5
20260906041450 70 95 0.0 0.0 0.00 0.00 0.00 95 1018.5
20260906040949 71 69 0.0 0.0 0.00 0.00 0.00 94 1018.6
20260906040444 71 69 0.0 0.0 0.00 0.00 0.00 94 1018.3
20260906035940 71 64 0.0 0.0 0.00 0.00 0.00 94 1018.6
20260906035435 71 75 0.0 0.0 0.00 0.00 0.00 94 1018.3
20260906034930 71 117 0.0 0.0 0.00 0.00 0.00 93 1018.3
20260906034425 72 121 0.0 0.0 0.00 0.00 0.00 93 1018.2
20260906033921 72 109 0.0 0.0 0.00 0.00 0.00 93 1018.4
20260906033421 72 108 0.0 0.0 0.00 0.00 0.00 93 1018.1
20260906032917 72 131 0.9 1.7 0.00 0.00 0.00 93 1018.1
20260906032413 72 163 0.9 0.9 0.00 0.00 0.00 93 1018.0
20260906031907 72 138 0.9 0.9 0.00 0.00 0.00 93 1018.1
20260906031403 72 134 1.7 1.7 0.00 0.00 0.00 93 1017.9
20260906030858 72 108 0.0 0.0 0.00 0.00 0.00 93 1017.9
20260906030358 72 117 0.0 0.0 0.00 0.00 0.00 93 1017.9
20260906025852 72 112 0.0 0.0 0.00 0.00 0.00 93 1018.0
20260906025346 72 143 0.0 0.0 0.00 0.00 0.00 93 1017.8
20260906024845 72 108 0.0 0.0 0.00 0.00 0.00 93 1017.5
20260906024344 72 77 0.0 0.0 0.00 0.00 0.00 93 1017.9
20260906023840 72 117 0.9 0.9 0.00 0.00 0.00 93 1018.0
20260906023336 72 86 1.7 2.6 0.00 0.00 0.00 93 1017.7
20260906022831 72 99 0.0 0.9 0.00 0.00 0.00 93 1017.8
20260906022326 72 108 0.0 0.0 0.00 0.00 0.00 93 1017.8
20260906021822 72 109 0.0 0.0 0.00 0.00 0.00 93 1017.9
20260906021321 72 127 0.9 0.9 0.00 0.00 0.00 93 1017.9
20260906020821 73 137 0.0 0.0 0.00 0.00 0.00 93 1017.8
20260906020321 73 153 0.9 0.9 0.00 0.00 0.00 93 1017.7
20260906015816 73 111 0.9 0.9 0.00 0.00 0.00 93 1017.8
20260906015315 73 123 0.0 0.9 0.00 0.00 0.00 93 1017.6
20260906014814 72 95 0.0 0.0 0.00 0.00 0.00 93 1017.9
20260906014310 72 84 0.0 0.0 0.00 0.00 0.00 94 1017.7
20260906013806 73 87 0.0 0.0 0.00 0.00 0.00 93 1017.9
20260906013301 73 80 0.0 0.0 0.00 0.00 0.00 93 1017.8
20260906012757 73 82 0.9 1.7 0.00 0.00 0.00 92 1018.1
20260906012252 73 70 0.0 0.0 0.00 0.00 0.00 92 1017.7
20260906011747 73 73 0.0 0.0 0.00 0.00 0.00 91 1017.6
20260906011246 74 72 0.0 0.0 0.00 0.00 0.00 91 1017.7
20260906010741 74 73 0.0 0.0 0.00 0.00 0.00 90 1017.9
20260906010238 74 71 0.0 0.0 0.00 0.00 0.00 90 1017.8
20260906005732 75 48 0.0 0.0 0.00 0.00 0.00 90 1017.5
20260906005231 75 47 0.0 0.0 0.00 0.00 0.00 89 1017.7
20260906004726 75 47 0.0 0.0 0.00 0.00 0.00 89 1017.6
20260906004221 76 47 0.0 0.0 0.00 0.00 0.00 88 1017.6
20260906003715 76 47 0.0 0.0 0.00 0.00 0.00 87 1017.6
20260906003211 77 47 0.0 0.0 0.00 0.00 0.00 87 1017.3
20260906002711 77 77 0.0 0.9 0.00 0.00 0.00 86 1017.0
20260906002206 77 69 0.0 0.0 0.00 0.00 0.00 86 1017.0
20260906001701 78 74 0.0 0.0 0.00 0.00 0.00 85 1016.6
20260906001201 78 106 0.0 0.9 0.00 0.00 0.00 84 1016.0
20260906000657 79 134 1.7 1.7 0.00 0.00 0.00 82 1016.3
20260906000152 79 96 1.7 1.7 0.00 0.00 0.00 82 1016.0
20260905235651 79 116 0.9 1.7 0.00 0.00 0.00 82 1015.9
20260905235146 79 135 0.0 0.0 0.00 0.00 0.00 82 1016.0
20260905234641 79 180 1.7 1.7 0.00 0.00 0.00 82 1015.9
20260905234137 79 106 1.7 1.7 0.00 0.00 0.00 82 1015.9
20260905233632 79 92 0.9 1.7 0.00 0.00 0.00 81 1015.8
20260905233131 79 92 0.9 1.7 0.00 0.00 0.00 82 1016.0
20260905232627 79 90 0.0 0.9 0.00 0.00 0.00 82 1015.9
20260905232118 79 132 0.9 0.9 0.00 0.00 0.00 82 1015.8
20260905231618 79 117 0.9 1.7 0.00 0.00 0.00 81 1015.6
20260905231113 79 140 1.7 2.6 0.00 0.00 0.00 81 1015.7
20260905230609 80 152 1.7 2.6 0.00 0.00 0.00 81 1015.8
20260905230107 79 136 0.9 1.7 0.00 0.00 0.00 81 1015.8
20260905225601 79 131 0.9 1.7 0.00 0.00 0.00 81 1015.7
20260905225055 80 101 1.7 2.6 0.00 0.00 0.00 81 1015.7
20260905224550 80 99 2.6 2.6 0.00 0.00 0.00 80 1015.8
20260905224049 80 96 0.9 1.7 0.00 0.00 0.00 80 1015.7
20260905223547 80 112 3.5 7.0 0.00 0.00 0.00 78 1015.7
20260905223043 81 356 1.7 3.5 0.00 0.00 0.00 78 1015.6
20260905222542 80 114 1.7 2.6 0.00 0.00 0.00 79 1015.7
20260905222038 80 95 3.5 7.0 0.00 0.00 0.00 79 1015.7
20260905221534 80 95 3.5 3.5 0.00 0.00 0.00 78 1015.8
20260905221030 80 96 1.7 2.6 0.00 0.00 0.00 80 1015.6
20260905220525 80 106 5.2 8.7 0.00 0.00 0.00 79 1015.5
20260905220021 80 77 2.6 2.6 0.00 0.00 0.00 80 1015.8
20260905215516 79 106 1.7 2.6 0.00 0.00 0.00 81 1015.6
20260905215012 80 139 1.7 1.7 0.00 0.00 0.00 80 1015.7
20260905214507 79 103 2.6 3.5 0.00 0.00 0.00 80 1016.0
20260905214002 79 129 2.6 3.5 0.00 0.00 0.00 81 1016.3
20260905213458 79 91 1.7 1.7 0.00 0.00 0.00 81 1016.2
20260905212952 78 357 5.2 7.0 0.00 0.00 0.00 82 1016.4
20260905212447 78 98 1.7 2.6 0.00 0.00 0.00 83 1016.5
20260905211946 77 111 2.6 3.5 0.00 0.00 0.00 84 1016.9
20260905211442 77 95 2.6 2.6 0.00 0.00 0.00 84 1017.1
20260905210938 76 170 1.7 1.7 0.00 0.00 0.00 85 1017.1
20260905210433 76 79 2.6 3.5 0.00 0.00 0.00 85 1017.2
20260905205932 77 224 1.7 2.6 0.00 0.00 0.00 84 1017.2
20260905205427 77 86 4.3 7.0 0.00 0.00 0.00 84 1017.5
20260905204925 76 99 2.6 3.5 0.00 0.00 0.00 85 1017.4
20260905204417 76 102 2.6 2.6 0.00 0.00 0.00 84 1017.8
20260905203915 76 82 2.6 2.6 0.00 0.00 0.00 84 1017.7
20260905203411 77 83 2.6 6.1 0.00 0.00 0.00 84 1017.5
20260905202906 77 64 4.3 6.1 0.00 0.00 0.00 83 1017.6
20260905202402 76 70 0.9 0.9 0.00 0.00 0.00 85 1017.5
20260905201856 76 88 6.1 8.7 0.00 0.00 0.00 84 1017.7
20260905201351 77 24 5.2 6.1 0.00 0.00 0.00 84 1017.8
20260905200846 77 114 6.1 9.6 0.00 0.00 0.00 84 1017.6
20260905200342 76 100 2.6 3.5 0.00 0.00 0.00 85 1017.8
20260905195839 76 117 4.3 6.1 0.00 0.00 0.00 85 1017.9